Weather History for Fairmont, MN

Change the Weather History Date:

Monday, March 3, 2014

  Actual Average Record
Temperature  
Mean Temperature 0 °F -  
Max Temperature 10 °F 36 °F 67 °F (1983)
Min Temperature -7 °F 18 °F -7 °F (2014)
Degree Days  
Heating Degree Days 64    
Moisture  
Dew Point -9 °F    
Average Humidity 62    
Maximum Humidity 79    
Minimum Humidity 24    
Precipitation  
Precipitation 0.00 in - - ()
Sea Level Pressure  
Sea Level Pressure 30.37 in    
Wind  
Wind Speed 7 mph (SSE)    
Max Wind Speed 16 mph    
Max Gust Speed -    
Visibility 10 miles    
Events      
Averages and records for this station are not official NWS values.
T = Trace of Precipitation, MM = Missing Value Source: NWS Daily Summary

Daily Weather History Graph

Daily Weather History Graph

Search for Another Location

Airport:

Trip Planner

Search our weather history database for the weather conditions in past years. The results will help you decide how hot, cold, wet, or windy it might be!

Date:

Astronomy

Mar. 03, 2014 Rise Set
Actual Time 6:50 AM CST 6:09 PM CST
Civil Twilight 6:22 AM CST 6:37 PM CST
Nautical Twilight 5:48 AM CST 7:10 PM CST
Astronomical Twilight 5:15 AM CST 7:44 PM CST
Moon 7:53 AM CST (3/3) 9:19 PM CST (3/3)
Length of Visible Light 12h 15m
Length of Day
11h 18m
Waxing Crescent, 8% of the Moon is Illuminated
Mar 3
Waxing Crescent
Mar 8
First Quarter
Mar 16
Full
Mar 23
Last Quarter
Mar 30
New

Hourly Weather History & Observations

Time (CST) Temp. Windchill Dew Point Humidity Pressure Visibility Wind Dir Wind Speed Gust Speed Precip Events Conditions
12:15 AM -7.6 °F -20.6 °F -16.6 °F 65% 30.51 in 10.0 mi NW 5.8 mph - N/A   Clear
12:35 AM -7.6 °F -18.8 °F -18.4 °F 59% 30.51 in 10.0 mi NW 4.6 mph - N/A   Clear
12:55 AM -7.6 °F -20.6 °F -18.4 °F 59% 30.51 in 10.0 mi NW 5.8 mph - N/A   Clear
1:15 AM -7.6 °F -20.6 °F -20.2 °F 54% 30.52 in 10.0 mi NW 5.8 mph - N/A   Partly Cloudy
1:35 AM -5.8 °F -18.4 °F -14.8 °F 65% 30.52 in 10.0 mi NW 5.8 mph - N/A   Mostly Cloudy
1:55 AM -7.6 °F -16.5 °F -18.4 °F 59% 30.52 in 10.0 mi NW 3.5 mph - N/A   Overcast
2:15 AM -5.8 °F -16.7 °F -16.6 °F 60% 30.52 in 10.0 mi NW 4.6 mph - N/A   Mostly Cloudy
2:35 AM -5.8 °F -16.7 °F -16.6 °F 60% 30.51 in 10.0 mi NW 4.6 mph - N/A   Clear
2:55 AM -7.6 °F -16.5 °F -18.4 °F 59% 30.51 in 10.0 mi NW 3.5 mph - N/A   Mostly Cloudy
3:15 AM -5.8 °F -16.7 °F -16.6 °F 60% 30.50 in 10.0 mi NW 4.6 mph - N/A   Overcast
3:35 AM -7.6 °F -18.8 °F -16.6 °F 65% 30.50 in 10.0 mi NW 4.6 mph - N/A   Overcast
3:55 AM -7.6 °F -16.5 °F -16.6 °F 65% 30.50 in 10.0 mi NW 3.5 mph - N/A   Overcast
4:15 AM -7.6 °F - -16.6 °F 65% 30.49 in 10.0 mi Calm Calm - N/A   Mostly Cloudy
4:35 AM -5.8 °F - -14.8 °F 65% 30.48 in 10.0 mi Calm Calm - N/A   Overcast
4:55 AM -5.8 °F - -14.8 °F 65% 30.48 in 10.0 mi Calm Calm - N/A   Overcast
5:15 AM -4.0 °F -12.4 °F -13.0 °F 65% 30.48 in 10.0 mi NNW 3.5 mph - N/A   Overcast
5:35 AM -5.8 °F - -14.8 °F 65% 30.47 in 10.0 mi Calm Calm - N/A   Overcast
5:55 AM -5.8 °F - -14.8 °F 65% 30.45 in 10.0 mi Calm Calm - N/A   Overcast
6:15 AM -5.8 °F - -14.8 °F 65% 30.46 in 10.0 mi Calm Calm - N/A   Overcast
6:35 AM -5.8 °F - -13.0 °F 71% 30.45 in 10.0 mi Calm Calm - N/A   Partly Cloudy
6:55 AM -5.8 °F - -16.6 °F 60% 30.45 in 10.0 mi Calm Calm - N/A   Clear
7:15 AM -5.8 °F - -13.0 °F 71% 30.45 in 10.0 mi Calm Calm - N/A   Mostly Cloudy
7:35 AM -2.2 °F - -11.2 °F 66% 30.46 in 10.0 mi Calm Calm - N/A   Overcast
7:55 AM -2.2 °F - -11.2 °F 66% 30.45 in 10.0 mi Calm Calm - N/A   Overcast
8:15 AM -2.2 °F - -13.0 °F 60% 30.46 in 10.0 mi Calm Calm - N/A   Overcast
8:35 AM -2.2 °F -10.4 °F -14.8 °F 55% 30.46 in 10.0 mi ESE 3.5 mph - N/A   Overcast
8:55 AM -2.2 °F -14.2 °F -14.8 °F 55% 30.46 in 10.0 mi SE 5.8 mph - N/A   Overcast
9:15 AM -2.2 °F -15.6 °F -13.0 °F 60% 30.46 in 10.0 mi SSE 6.9 mph - N/A   Overcast
9:35 AM -0.4 °F -13.4 °F -14.8 °F 51% 30.45 in 10.0 mi SSE 6.9 mph - N/A   Overcast
9:55 AM -0.4 °F -13.4 °F -13.0 °F 55% 30.46 in 10.0 mi South 6.9 mph - N/A   Overcast
10:15 AM -0.4 °F -14.7 °F -13.0 °F 55% 30.45 in 10.0 mi SSE 8.1 mph - N/A   Overcast
10:35 AM -0.4 °F -16.7 °F -11.2 °F 60% 30.45 in 10.0 mi South 10.4 mph - N/A   Overcast
10:55 AM 1.4 °F -14.5 °F -11.2 °F 56% 30.45 in 10.0 mi SSE 10.4 mph - N/A   Overcast
11:15 AM 1.4 °F -15.3 °F -11.2 °F 56% 30.45 in 10.0 mi South 11.5 mph - N/A   Overcast
11:35 AM 1.4 °F -15.3 °F -9.4 °F 61% 30.45 in 10.0 mi SSE 11.5 mph - N/A   Overcast
11:55 AM 3.2 °F -12.2 °F -9.4 °F 56% 30.44 in 10.0 mi South 10.4 mph - N/A   Overcast
12:15 PM 3.2 °F -13.1 °F -9.4 °F 56% 30.42 in 10.0 mi South 11.5 mph - N/A   Overcast
12:35 PM 3.2 °F -13.9 °F -9.4 °F 56% 30.40 in 10.0 mi South 12.7 mph - N/A   Overcast
12:55 PM 5.0 °F -11.6 °F -7.6 °F 56% 30.39 in 10.0 mi South 12.7 mph - N/A   Overcast
1:15 PM 5.0 °F -10.8 °F -5.8 °F 61% 30.38 in 10.0 mi South 11.5 mph - N/A   Overcast
1:35 PM 5.0 °F -11.6 °F -7.6 °F 56% 30.37 in 10.0 mi SSE 12.7 mph - N/A   Scattered Clouds
1:55 PM 5.0 °F -12.3 °F -7.6 °F 56% 30.36 in 10.0 mi South 13.8 mph - N/A   Mostly Cloudy
2:15 PM 6.8 °F -10.0 °F -5.8 °F 56% 30.35 in 10.0 mi South 13.8 mph - N/A   Overcast
2:35 PM 6.8 °F -10.7 °F -5.8 °F 56% 30.34 in 10.0 mi SSE 15.0 mph - N/A   Overcast
2:55 PM 6.8 °F -10.7 °F -5.8 °F 56% 30.33 in 10.0 mi South 15.0 mph - N/A   Overcast
3:15 PM 6.8 °F -10.7 °F -4.0 °F 61% 30.33 in 10.0 mi South 15.0 mph - N/A   Overcast
3:35 PM 6.8 °F -10.7 °F -5.8 °F 56% 30.32 in 10.0 mi SSE 15.0 mph - N/A   Overcast
3:55 PM 6.8 °F -9.3 °F -5.8 °F 56% 30.30 in 10.0 mi SSE 12.7 mph - N/A   Overcast
4:15 PM 6.8 °F -9.3 °F -5.8 °F 56% 30.30 in 10.0 mi SSE 12.7 mph - N/A   Overcast
4:35 PM 8.6 °F -8.9 °F -5.8 °F 52% 30.27 in 10.0 mi SSE 16.1 mph - N/A   Overcast
4:55 PM 8.6 °F -6.3 °F -2.2 °F 62% 30.27 in 10.0 mi SE 11.5 mph - N/A   Overcast
5:15 PM 6.8 °F -10.0 °F -2.2 °F 67% 30.26 in 10.0 mi SE 13.8 mph - N/A   Overcast
5:35 PM 6.8 °F -10.7 °F -2.2 °F 67% 30.25 in 10.0 mi SE 15.0 mph - N/A   Overcast
5:55 PM 8.6 °F -8.9 °F -4.0 °F 57% 30.24 in 10.0 mi SE 16.1 mph - N/A   Overcast
6:15 PM 8.6 °F -8.3 °F -4.0 °F 57% 30.23 in 10.0 mi SSE 15.0 mph - N/A   Overcast
6:35 PM 6.8 °F -10.7 °F -2.2 °F 67% 30.23 in 10.0 mi SSE 15.0 mph - N/A   Overcast
6:55 PM 6.8 °F -10.7 °F -2.2 °F 67% 30.24 in 10.0 mi SSE 15.0 mph - N/A   Overcast
7:15 PM 6.8 °F -9.3 °F -2.2 °F 67% 30.24 in 10.0 mi SSE 12.7 mph - N/A   Overcast
7:35 PM 6.8 °F -7.8 °F -2.2 °F 67% 30.24 in 10.0 mi SSE 10.4 mph - N/A   Overcast
7:55 PM 6.8 °F -9.3 °F -2.2 °F 67% 30.23 in 10.0 mi SSE 12.7 mph - N/A   Overcast
8:15 PM 6.8 °F -10.0 °F -0.4 °F 72% 30.23 in 7.0 mi SSE 13.8 mph - N/A   Overcast
8:35 PM 6.8 °F -8.6 °F 1.4 °F 79% 30.22 in 10.0 mi SSE 11.5 mph - N/A   Mostly Cloudy
8:55 PM 6.8 °F -8.6 °F 1.4 °F 79% 30.21 in 10.0 mi SSE 11.5 mph - N/A   Overcast
9:15 PM 8.6 °F -6.3 °F 1.4 °F 73% 30.20 in 7.0 mi SSE 11.5 mph - N/A   Overcast
9:35 PM 8.6 °F -7.0 °F 1.4 °F 73% 30.19 in 10.0 mi SSE 12.7 mph - N/A   Overcast
9:55 PM 8.6 °F -7.0 °F 3.2 °F 79% 30.19 in 10.0 mi SSE 12.7 mph - N/A   Mostly Cloudy
10:15 PM 8.6 °F -7.7 °F 3.2 °F 79% 30.17 in 10.0 mi SSE 13.8 mph - N/A   Mostly Cloudy
10:35 PM 8.6 °F -8.3 °F 3.2 °F 79% 30.16 in 10.0 mi SSE 15.0 mph - N/A   Overcast
10:55 PM 8.6 °F -8.9 °F 1.4 °F 73% 30.16 in 10.0 mi SSE 16.1 mph - N/A   Scattered Clouds
11:15 PM 8.6 °F -7.7 °F 1.4 °F 73% 30.17 in 10.0 mi South 13.8 mph - N/A   Mostly Cloudy
11:35 PM 8.6 °F -6.3 °F -14.8 °F 34% 30.17 in 10.0 mi South 11.5 mph - N/A   Overcast
11:55 PM 10.4 °F -4.1 °F -20.2 °F 24% 30.17 in 10.0 mi South 11.5 mph - N/A   Overcast